Regional Weather Roundup
Issued by NWS

Home | Current Version | Previous Version | Text Only | Print | Product List | Glossary Off
Versions: 1 2 3 4 5 6 7 8 9 10 11 12 13 14 15 16 17 18 19 20 21 22 23 24 25 26 27 28 29 30 31 32 33 34 35 36 37 38 39 40 41 42 43 44 45 46 47 48 49 50

000
ASUS43 KDMX 110307
RWRIA

WEATHER ROUNDUP FOR IOWA
NATIONAL WEATHER SERVICE DES MOINES IA
1000 PM CDT THU JUL 10 2014

NOTE: "FAIR" INDICATES FEW OR NO CLOUDS BELOW 12,000 FEET WITH NO
SIGNIFICANT WEATHER AND/OR OBSTRUCTIONS TO VISIBILITY.

* - THESE STATIONS ARE NOT NWS STATIONS...THUS NOT UNDER NWS
QUALITY CONTROL.  THEY ALSO DO NOT REPORT WEATHER SUCH
AS PRECIPITATION OR FOG.

IAZ001>003-012>014-020>022-031>034-043>046-110400-
   NORTHWEST IOWA

CITY           SKY/WX    TMP DP  RH WIND       PRES   REMARKS
CARROLL *      PTCLDY    70  61  73 S10       30.02S
CHEROKEE *     PTCLDY    73  64  73 S9        29.99R
DENISON *      PTCLDY    73  63  68 SE12G18   29.99R
LE MARS *      PTCLDY    75  66  73 SE10G17   29.96R
ORANGE CITY *  CLEAR     75  64  69 S10       29.97R
SHELDON *      PTCLDY    75  64  69 S15G23    29.96R
SIOUX CITY     CLEAR     77  67  71 SE9       29.95R
SPENCER        CLOUDY    73  64  73 S13G21    29.99R
STORM LAKE *   CLEAR     72  63  73 S14       30.02R
$$

IAZ055>058-069>071-079>083-090>094-110400-
   SOUTHWEST IOWA

CITY           SKY/WX    TMP DP  RH WIND       PRES   REMARKS
ATLANTIC *     PTCLDY    73  63  68 SE9       30.03R
AUDUBON *      CLEAR     73  64  73 S7        30.05S
CLARINDA *     CLEAR     73  66  78 SE7       30.06R
COUNCIL BLFS *   N/A     73  68  83 SE15      29.99S
CRESTON *      CLEAR     68  61  77 SE8       30.07R
HARLAN  *      CLEAR     72  64  78 SE9       30.04S
LAMONI         PTCLDY    71  59  65 SE8       30.09R
RED OAK *      CLEAR     73  64  73 SE12      30.03R
SHENANDOAH *   CLEAR     73  66  78 SE10      30.03R
$$

IAZ047>049-059>061-072>074-084-110400-
   CENTRAL IOWA

CITY           SKY/WX    TMP DP  RH WIND       PRES   REMARKS
AMES           MOCLDY    69  62  78 SE7       30.06R
ANKENY *       CLEAR     72  61  68 SE8       30.06S
CHARITON *     PTCLDY    68  63  83 SE6       30.10R
DES MOINES     MOCLDY    73  59  61 SE12      30.06S
GRINNELL*      MOCLDY    68  57  68 SE7       30.11R
KNOXVILLE *    CLEAR     70  61  73 SE5       30.09R
MARSHALLTOWN   MOCLDY    70  60  70 S9        30.08R
PELLA *        MOCLDY    70  61  73 SE5       30.11R
PERRY *          N/A     68  63  83 SE6       30.06R
$$

IAZ004>006-015-016-023>025-035-036-110400-
   NORTH CENTRAL IOWA

CITY           SKY/WX    TMP DP  RH WIND       PRES   REMARKS
ALGONA *       CLEAR     73  61  64 S10       30.03R
CLARION *      CLEAR     73  59  60 S12G20    30.04R
ESTHERVILLE    CLOUDY    73  60  63 S16       29.99R
FORT DODGE *   CLOUDY    73  59  60 S12G17    30.04R
MASON CITY     CLOUDY    71  60  68 S10       30.06R
FOREST CITY *  CLEAR     72  59  64 S10       30.04R
IOWA FALLS *     N/A     70  59  68 SE8       30.07S
$$

IAZ007>011-017>019-026>030-037>042-050>054-066-110400-
   NORTHEAST IOWA

CITY           SKY/WX    TMP DP  RH WIND       PRES   REMARKS
CEDAR RAPIDS   MOCLDY    68  60  75 S3        30.10R
CHARLES CITY * CLEAR     70  59  68 S9        30.08R
CLINTON *      PTCLDY    70  61  73 S6        30.16R
DECORAH *        N/A    N/A N/A N/A MISG        N/A
DUBUQUE        CLOUDY    67  61  81 S5        30.13R
MONTICELLO *   CLEAR     66  63  88 SE5       30.12R
OELWEIN *      CLEAR     68  68 100 S9G15     30.10S
WATERLOO       PTCLDY    73  58  59 S12       30.07S
$$

IAZ064-065-067-068-078-110400-
   EAST CENTRAL IOWA

CITY           SKY/WX    TMP DP  RH WIND       PRES   REMARKS
DAVENPORT      PTCLDY    67  59  75 SE6       30.14R
IOWA CITY      MOCLDY    69  63  81 SE6       30.12R
MT. PLEASANT * MOCLDY    66  59  77 SE5       30.13R
MUSCATINE *    CLEAR     70  63  78 CALM      30.13R
QUAD CITIES    PTCLDY    68  60  75 S7        30.13R
$$

IAZ062-063-075>077-085>089-095>099-110400-
   SOUTHEAST IOWA

CITY           SKY/WX    TMP DP  RH WIND       PRES   REMARKS
BURLINGTON     PTCLDY    71  60  68 SE7       30.12R
FAIRFIELD *    CLEAR     68  59  73 SE6       30.12R
FORT MADISON * CLEAR     70  61  73 SE6       30.13S
KEOKUK *       CLEAR     70  61  73 SE6       30.11R
OSKALOOSA *      N/A     68  61  77 SE6       30.10R
CENTERVILLE *  CLEAR     66  63  88 SE6       30.12R
OTTUMWA        CLOUDY    66  58  75 SE7       30.10R
WASHINGTON *   CLEAR     66  61  82 SE7       30.12R
$$

ABBREVIATIONS USED IN REMARKS
   TC - TEMPERATURES IN CELSIUS
  WCI - WIND CHILL INDEX
   HX - HEAT INDEX
  VSB - VISIBILITY
$$




USA.gov is the U.S. government's official web portal to all federal, state and local government web resources and services.